STARLINK-1583 (46064 NORAD) Tracking and Keplerian Element Data

This shows tracking and keplerian element data for the satellite.

Feedback or suggestion? Click here.




ElementValue
Catalog46064
NameSTARLINK-1583
Epoch Orbit1903
Epoch Day336.64784495
Epoch Year2020
RAAN113.9533
Inclination53.0228
Eccentricity0.0002682
Argument of Perigee46.3113
Mean Anonmoly313.8097
Mean Motion15.05908963
Decay Rate-0.00074345
L11 46064U 20055AP 20336.64784495 -.00074345 00000-0 -50912-2 0 9997
L22 46064 53.0228 113.9533 0002682 46.3113 313.8097 15.05908963 19033

Live tracking and technical data element details for STARLINK-1583 (NORAD 46064). STARLINK-1583 can be tracked NOW for your location showing map with azimuth and elevation plus other details from your city location.

Track the satellite on the map from your city or location and see movement details for azimuth, elevation, latitude, longitude, range, height, and movement on the map or in text.







IsCatalogInMostPopularTable: catalog: 46064, numindb: 33
Update: records affected: 1



GetName: 46064 STARLINK-1583

Hit Count: updated at: Thu, 03 Dec 2020 02:52:01 GMT